Auchincruive, United Kingdom

7:14 PM GMT on February 22, 2017 (GMT +0000)
Prestwick

Weather History for EGPK - November, 2011

Change the Weather History Date:

Tuesday, November 15, 2011

  Actual Average Record
Temperature  
Mean Temperature 46 °F -  
Max Temperature 53 °F 46 °F 60 °F (1997)
Min Temperature 39 °F 36 °F 30 °F (1998)
Degree Days  
Heating Degree Days 19    
Moisture  
Dew Point 41 °F    
Average Humidity 81    
Maximum Humidity 87    
Minimum Humidity 71    
Precipitation  
Precipitation 0.00 in - - ()
Sea Level Pressure  
Sea Level Pressure 30.12 in    
Wind  
Wind Speed 5 mph ()    
Max Wind Speed 14 mph    
Max Gust Speed -    
Visibility 6.1 miles    
Events      
Averages and records for this station are not official NWS values.
T = Trace of Precipitation, MM = Missing Value Source: Averaged Metar Reports

Daily Weather History Graph

Daily Weather History Graph

Search for Another Location

Airport or City:

Trip Planner

Search our weather history database for the weather conditions in past years. The results will help you decide how hot, cold, wet, or windy it might be!

Date:

Astronomy

Nov. 15, 2011 Rise Set
Actual Time 7:51 AM GMT 4:13 PM GMT
Civil Twilight 7:10 AM GMT 4:54 PM GMT
Nautical Twilight 6:25 AM GMT 5:39 PM GMT
Astronomical Twilight 5:41 AM GMT 6:23 PM GMT
Moon 8:00 PM GMT (11/15) 11:51 AM GMT (11/15)
Length of Visible Light 9h 44m
Length of Day
8h 21m
Waning Gibbous, 81% of the Moon is Illuminated
Nov 15
Waning Gibbous
Nov 18
Last Quarter
Nov 25
New
Dec 2
First Quarter
Dec 10
Full

Hourly Weather History & Observations

Time (GMT) Temp. Windchill Dew Point Humidity Pressure Visibility Wind Dir Wind Speed Gust Speed Precip Events Conditions
12:50 AM 46.4 °F 44.3 °F 41.0 °F 81% 30.18 in 6.2 mi ENE 4.6 mph - N/A   Mostly Cloudy
1:50 AM 48.2 °F - 41.0 °F 76% 30.18 in 6.2 mi East 3.5 mph - N/A   Mostly Cloudy
2:50 AM 48.2 °F - 41.0 °F 76% 30.18 in 6.2 mi East 3.5 mph - N/A   Mostly Cloudy
3:50 AM 48.2 °F - 41.0 °F 76% 30.15 in 6.2 mi East 3.5 mph - N/A   Mostly Cloudy
4:50 AM 48.2 °F - 41.0 °F 76% 30.15 in 6.2 mi ENE 3.5 mph - N/A   Mostly Cloudy
5:50 AM 48.2 °F - 41.0 °F 76% 30.15 in 6.2 mi East 3.5 mph - N/A   Mostly Cloudy
6:20 AM 48.2 °F - 41.0 °F 76% 30.15 in 6.2 mi East 3.5 mph - N/A   Mostly Cloudy
6:50 AM 48.2 °F - 41.0 °F 76% 30.15 in 6.2 mi ENE 3.5 mph - N/A   Mostly Cloudy
7:20 AM 46.4 °F 42.9 °F 41.0 °F 81% 30.15 in 6.2 mi East 6.9 mph - N/A   Mostly Cloudy
7:50 AM 48.2 °F - 42.8 °F 82% 30.15 in 4.3 mi East 5.8 mph - N/A   Mostly Cloudy
8:20 AM 48.2 °F - 42.8 °F 82% 30.15 in 4.3 mi East 4.6 mph - N/A   Mostly Cloudy
8:50 AM 48.2 °F - 42.8 °F 82% 30.15 in 6.2 mi ENE 2.3 mph - N/A   Mostly Cloudy
9:20 AM 48.2 °F - 42.8 °F 82% 30.15 in 6.2 mi East 3.5 mph - N/A   Mostly Cloudy
9:50 AM 48.2 °F - 42.8 °F 82% 30.15 in 6.2 mi East 3.5 mph - N/A   Mostly Cloudy
10:20 AM 48.2 °F - 42.8 °F 82% 30.15 in 6.2 mi East 4.6 mph - N/A   Mostly Cloudy
10:50 AM 48.2 °F - 42.8 °F 82% 30.15 in 6.2 mi East 3.5 mph - N/A   Mostly Cloudy
11:20 AM 50.0 °F - 44.6 °F 82% 30.15 in 6.2 mi East 10.4 mph - N/A   Mostly Cloudy
11:50 AM 50.0 °F - 44.6 °F 82% 30.15 in 6.2 mi East 9.2 mph - N/A   Mostly Cloudy
12:50 PM 51.8 °F - 44.6 °F 76% 30.12 in 6.2 mi East 6.9 mph - N/A   Scattered Clouds
1:20 PM 53.6 °F - 44.6 °F 72% 30.12 in 6.2 mi East 11.5 mph - N/A   Scattered Clouds
1:50 PM 53.6 °F - 44.6 °F 72% 30.09 in 6.2 mi East 13.8 mph - N/A   Partly Cloudy
2:20 PM 51.8 °F - 44.6 °F 76% 30.09 in 6.2 mi East 11.5 mph - N/A   Partly Cloudy
2:50 PM 51.8 °F - 42.8 °F 71% 30.09 in 6.2 mi East 12.7 mph - N/A   Partly Cloudy
3:20 PM 50.0 °F - 42.8 °F 76% 30.09 in 6.2 mi East 10.4 mph - N/A   Partly Cloudy
3:50 PM 48.2 °F - 42.8 °F 82% 30.09 in 6.2 mi East 8.1 mph - N/A   Partly Cloudy
4:20 PM 46.4 °F - 42.8 °F 87% 30.09 in 6.2 mi ENE 2.3 mph - N/A   Partly Cloudy
4:50 PM 46.4 °F 43.5 °F 42.8 °F 87% 30.09 in 6.2 mi NNE 5.8 mph - N/A   Partly Cloudy
5:20 PM 46.4 °F 43.5 °F 41.0 °F 81% 30.09 in 6.2 mi ENE 5.8 mph - N/A   Partly Cloudy
5:50 PM 46.4 °F 42.9 °F 41.0 °F 81% 30.09 in 6.2 mi NE 6.9 mph - N/A   Partly Cloudy
6:20 PM 44.6 °F 42.2 °F 41.0 °F 87% 30.09 in 6.2 mi ENE 4.6 mph - N/A   Partly Cloudy
6:50 PM 44.6 °F 43.1 °F 41.0 °F 87% 30.09 in 6.2 mi ENE 3.5 mph - N/A   Partly Cloudy
7:20 PM 44.6 °F 42.2 °F 41.0 °F 87% 30.09 in 6.2 mi ENE 4.6 mph - N/A   Partly Cloudy
7:50 PM 42.8 °F 39.3 °F 39.2 °F 87% 30.09 in 6.2 mi ENE 5.8 mph - N/A   Partly Cloudy
8:20 PM 42.8 °F 39.3 °F 39.2 °F 87% 30.09 in 6.2 mi ENE 5.8 mph - N/A   Partly Cloudy
8:50 PM 42.8 °F 39.3 °F 39.2 °F 87% 30.09 in 6.2 mi NE 5.8 mph - N/A   Partly Cloudy
9:20 PM 42.8 °F 39.3 °F 37.4 °F 81% 30.09 in 6.2 mi NE 5.8 mph - N/A   Partly Cloudy
9:50 PM 41.0 °F 36.4 °F 37.4 °F 87% 30.09 in 6.2 mi NNE 6.9 mph - N/A   Partly Cloudy
10:20 PM 42.8 °F 37.5 °F 37.4 °F 81% 30.09 in 6.2 mi NE 9.2 mph - N/A   Partly Cloudy
10:50 PM 41.0 °F 34.7 °F 35.6 °F 81% 30.09 in 6.2 mi NE 10.4 mph - N/A   Partly Cloudy
11:20 PM 39.2 °F 35.9 °F 35.6 °F 87% 30.09 in 6.2 mi ENE 4.6 mph - N/A   Partly Cloudy
11:50 PM 39.2 °F 32.0 °F 35.6 °F 87% 30.09 in 6.2 mi NE 11.5 mph - N/A   Partly Cloudy